Location: Newark
(55.7167°N, 12.5667°E)
Time: 03:11:11
(UTC+00:00)

N. Korean satellite - Pass Details

Date: 12 December 2019
Orbit: 454 x 508 km, 97.2° (Epoch: 17 January)

Event Time Altitude Azimuth Distance (km) Brightness Sun altitude
Rises 16:22:10 0° 180° (S) 2,602 10.6 -13.4°
Reaches altitude 10° 16:24:19 10° 186° (S) 1,718 9.7 -13.7°
Maximum altitude 16:27:53 46° 261° (W) 684 7.8 -14.1°
Drops below altitude 10° 16:31:28 10° 336° (NNW) 1,712 9.4 -14.6°
Sets 16:33:36 0° 342° (NNW) 2,591 10.2 -14.9°
